This demonstration page uses our WeatherBlox Daily Observations layout. Learn more.

Left ArrowRight Arrow

36.19886, -115.1175

Hourly Observations for November 17, 2021

Temp ( °F °C ) Dew Point ( °F °C ) Humidity (%) Winds ( mph kmh ) Pressure ( in mb ) Visibility ( mi km ) Precip ( " mm )
12:53 am 00:53 Clear 59 15 24 -4.4 26 26 W 3 6 29.98 1015 10 16 0.00 0.00
1:53 am 01:53 Clear 56 13.3 24 -4.4 29 29 VRB 3 6 30.00 1016 10 16 0.00 0.00
2:53 am 02:53 Clear 57 13.9 22 -5.6 26 26 WNW 9 15 30.01 1016 10 16 0.00 0.00
3:53 am 03:53 Clear 61 16.1 22 -5.6 22 22 NW 14 22 30.01 1016 10 16 0.00 0.00
4:53 am 04:53 Clear 58 14.4 22 -5.6 25 25 NNE 8 13 30.06 1018 10 16 0.00 0.00
5:53 am 05:53 Clear 57 13.9 25 -3.9 29 29 NW 10 17 30.08 1019 10 16 0.00 0.00
6:53 am 06:53 Sunny 58 14.4 26 -3.3 29 29 NW 9 15 30.11 1020 10 16 0.00 0.00
7:53 am 07:53 Sunny 62 16.7 27 -2.8 26 26 Calm 30.14 1021 10 16 0.00 0.00
8:53 am 08:53 Sunny 66 18.9 26 -3.3 22 22 NNW 13 20 30.15 1021 10 16 0.00 0.00
9:53 am 09:53 Sunny 66 18.9 26 -3.3 22 22 Calm 30.17 1022 10 16 0.00 0.00
10:53 am 10:53 Sunny 69 20.6 26 -3.3 20 20 VRB 3 6 30.16 1021 10 16 0.00 0.00
11:53 am 11:53 Sunny 69 20.6 25 -3.9 19 19 VRB 3 6 30.13 1020 10 16 0.00 0.00
12:53 pm 12:53 Sunny 72 22.2 25 -3.9 17 17 ENE 6 9 30.11 1020 10 16 0.00 0.00
1:53 pm 13:53 Sunny 71 21.7 24 -4.4 17 17 Calm 30.10 1019 10 16 0.00 0.00
2:53 pm 14:53 Sunny 73 22.8 22 -5.6 15 15 E 9 15 30.10 1019 10 16 0.00 0.00
3:53 pm 15:53 Sunny 70 21.1 21 -6.1 16 16 E 10 17 30.10 1019 10 16 0.00 0.00
4:53 pm 16:53 Clear 67 19.4 21 -6.1 17 17 E 7 11 30.12 1020 10 16 0.00 0.00
5:53 pm 17:53 Clear 64 17.8 21 -6.1 19 19 SSE 5 7 30.14 1021 10 16 0.00 0.00
6:53 pm 18:53 Clear 63 17.2 20 -6.7 19 19 SSE 3 6 30.16 1021 10 16 0.00 0.00
7:53 pm 19:53 Clear 61 16.1 22 -5.6 22 22 SW 5 7 30.17 1022 10 16 0.00 0.00
8:53 pm 20:53 Clear 58 14.4 23 -5 26 26 WNW 3 6 30.18 1022 10 16 0.00 0.00
9:53 pm 21:53 Clear 56 13.3 23 -5 28 28 WNW 5 7 30.20 1023 10 16 0.00 0.00
10:53 pm 22:53 Clear 56 13.3 21 -6.1 26 26 Calm 30.20 1023 10 16 0.00 0.00
11:53 pm 23:53 Clear 54 12.2 20 -6.7 26 26 Calm 30.21 1023 10 16 0.00 0.00

Powered by AerisWeather